Location: Brachstadt
(48.6975°N, 10.6755°E)
Time: 02:01:42
(UTC+00:00)

Envisat - Pass Details

Date: 28 November 2022
Orbit: 763 x 765 km, 98.2° (Epoch: 28 January)

Event Time Altitude Azimuth Distance (km) Brightness Sun altitude
Rises 05:45:16 0° 358° (N) 3,246 6.0 -9.5°
Reaches altitude 10° 05:49:39 10° 322° (NW) 2,314 5.0 -8.9°
Maximum altitude 05:50:45 11° 309° (NW) 2,264 4.8 -8.7°
Enters shadow 05:51:29 10° 301° (WNW) 2,284 4.8 -8.6°
